Weather History for Oxford, CT

Change the Weather History Date:

Wednesday, April 25, 2012

  Actual Average Record
Temperature  
Mean Temperature 45 °F -  
Max Temperature 57 °F 58 °F 71 °F (2008)
Min Temperature 33 °F 38 °F 30 °F (2003)
Degree Days  
Heating Degree Days 20    
Moisture  
Dew Point 29 °F    
Average Humidity 56    
Maximum Humidity 81    
Minimum Humidity 33    
Precipitation  
Precipitation 0.00 in - - ()
Sea Level Pressure  
Sea Level Pressure 29.78 in    
Wind  
Wind Speed 4 mph (WNW)    
Max Wind Speed 9 mph    
Max Gust Speed 24 mph    
Visibility 10 miles    
Events      
Averages and records for this station are not official NWS values.
T = Trace of Precipitation, MM = Missing Value Source: NWS Daily Summary

Daily Weather History Graph

Daily Weather History Graph

Search for Another Location

Airport:

Trip Planner

Search our weather history database for the weather conditions in past years. The results will help you decide how hot, cold, wet, or windy it might be!

Date:

Astronomy

Apr. 25, 2012 Rise Set
Actual Time 5:57 AM EDT 7:44 PM EDT
Civil Twilight 5:27 AM EDT 8:14 PM EDT
Nautical Twilight 4:51 AM EDT 8:50 PM EDT
Astronomical Twilight 4:13 AM EDT 9:28 PM EDT
Moon 8:38 AM EDT (4/25) 11:50 PM EDT (4/25)
Length of Visible Light 14h 46m
Length of Day
13h 47m
Waxing Crescent, 16% of the Moon is Illuminated
Apr 25
Waxing Crescent
Apr 29
First Quarter
May 5
Full
May 12
Last Quarter
May 20
New

Hourly Weather History & Observations

Time (EDT) Temp. Windchill Dew Point Humidity Pressure Visibility Wind Dir Wind Speed Gust Speed Precip Events Conditions
12:15 AM 42.8 °F - 30.2 °F 61% 29.71 in 10.0 mi Calm Calm - N/A   Scattered Clouds
12:35 AM 42.8 °F - 28.4 °F 57% 29.72 in 10.0 mi Calm Calm - N/A   Clear
12:55 AM 42.8 °F 41.1 °F 28.4 °F 57% 29.72 in 10.0 mi West 3.5 mph - N/A   Clear
1:15 AM 42.8 °F 41.1 °F 28.4 °F 57% 29.73 in 10.0 mi WSW 3.5 mph - N/A   Clear
1:55 AM 42.8 °F 41.1 °F 28.4 °F 57% 29.73 in 10.0 mi WSW 3.5 mph - N/A   Clear
2:15 AM 42.8 °F 40.1 °F 28.4 °F 57% 29.73 in 10.0 mi West 4.6 mph - N/A   Clear
2:35 AM 41.0 °F 39.0 °F 28.4 °F 61% 29.73 in 10.0 mi West 3.5 mph - N/A   Clear
2:55 AM 41.0 °F 39.0 °F 28.4 °F 61% 29.74 in 10.0 mi West 3.5 mph - N/A   Clear
3:15 AM 41.0 °F 38.0 °F 28.4 °F 61% 29.74 in 10.0 mi West 4.6 mph - N/A   Clear
3:55 AM 39.2 °F 35.9 °F 28.4 °F 65% 29.75 in 10.0 mi West 4.6 mph - N/A   Clear
4:35 AM 39.2 °F 35.0 °F 28.4 °F 65% 29.76 in 10.0 mi West 5.8 mph - N/A   Clear
4:55 AM 39.2 °F 35.0 °F 28.4 °F 65% 29.76 in 10.0 mi West 5.8 mph - N/A   Clear
5:35 AM 39.2 °F 35.9 °F 26.6 °F 61% 29.77 in 10.0 mi West 4.6 mph - N/A   Clear
5:45 AM 39.2 °F 37.0 °F 26.6 °F 61% 29.77 in 10.0 mi West 3.5 mph - N/A   Clear
5:55 AM 39.2 °F - 26.6 °F 61% 29.78 in 10.0 mi Calm Calm - N/A   Clear
6:45 AM 33.8 °F - 28.4 °F 81% 29.79 in 10.0 mi Calm Calm - N/A   Clear
7:45 AM 42.8 °F - 28.4 °F 57% 29.81 in 10.0 mi Calm Calm - N/A   Clear
8:45 AM 48.2 °F - 28.4 °F 46% 29.83 in 10.0 mi South 5.8 mph - N/A   Clear
9:45 AM 51.8 °F - 28.4 °F 41% 29.83 in 10.0 mi WSW 5.8 mph - N/A   Clear
10:45 AM 53.6 °F - 26.6 °F 35% 29.83 in 10.0 mi West 9.2 mph 16.1 mph N/A   Clear
11:45 AM 53.6 °F - 24.8 °F 33% 29.82 in 10.0 mi West 8.1 mph 17.3 mph N/A   Mostly Cloudy
12:45 PM 53.6 °F - 26.6 °F 35% 29.81 in 10.0 mi West 8.1 mph 17.3 mph N/A   Mostly Cloudy
1:45 PM 53.6 °F - 26.6 °F 35% 29.80 in 10.0 mi West 9.2 mph 17.3 mph N/A   Mostly Cloudy
2:45 PM 57.2 °F - 28.4 °F 33% 29.78 in 10.0 mi West 8.1 mph 18.4 mph N/A   Mostly Cloudy
3:55 PM 53.6 °F - 28.4 °F 38% 28.90 in 10.0 mi West 8.1 mph 17.3 mph N/A   Mostly Cloudy
4:45 PM 55.4 °F - 28.4 °F 36% 29.79 in 10.0 mi WSW 9.2 mph 17.3 mph N/A   Mostly Cloudy
5:10 PM 51.8 °F - 30.2 °F 44% 29.81 in 10.0 mi NW 9.2 mph 24.2 mph N/A   Overcast
5:55 PM 51.8 °F - 33.8 °F 50% 29.82 in 10.0 mi North 9.2 mph 17.3 mph N/A   Mostly Cloudy
6:55 PM 50.0 °F - 33.8 °F 54% 29.85 in 10.0 mi North 9.2 mph - N/A   Scattered Clouds
7:45 PM 46.4 °F 42.9 °F 30.2 °F 53% 29.86 in 10.0 mi NNE 6.9 mph - N/A   Scattered Clouds
9:15 PM 42.8 °F - 30.2 °F 61% 29.90 in 10.0 mi Calm Calm - N/A   Clear
9:35 PM 39.2 °F - 28.4 °F 65% 29.90 in 10.0 mi Calm Calm - N/A   Clear
9:55 PM 41.0 °F - 30.2 °F 65% 29.91 in 10.0 mi Calm Calm - N/A   Clear
10:35 PM 39.2 °F 37.0 °F 28.4 °F 65% 29.92 in 10.0 mi North 3.5 mph - N/A   Clear
10:55 PM 39.2 °F 37.0 °F 30.2 °F 70% 29.92 in 10.0 mi North 3.5 mph - N/A   Clear
11:15 PM 39.2 °F 37.0 °F 30.2 °F 70% 29.93 in 10.0 mi North 3.5 mph - N/A   Clear
11:35 PM 37.4 °F 34.9 °F 30.2 °F 75% 29.93 in 10.0 mi North 3.5 mph - N/A   Clear
11:55 PM 35.6 °F 32.8 °F 28.4 °F 75% 29.94 in 10.0 mi North 3.5 mph - N/A   Clear